Waarnemingen

Advertentie
Mijn weer
Beauvechain, België (6458): temperatuur & dauwpunt: 04.12.2019 16:00:00 - 10.12.2019 16:00:00 (CET)Beauvechain, België (6458): windsnelheid & windstoten: 04.12.2019 16:00:00 - 10.12.2019 16:00:00 (CET)Beauvechain, België (6458): windrichting: 04.12.2019 16:00:00 - 10.12.2019 16:00:00 (CET)Beauvechain, België (6458): luchtdruk: 04.12.2019 16:00:00 - 10.12.2019 16:00:00 (CET)Beauvechain, België (6458): zicht: 04.12.2019 16:00:00 - 10.12.2019 16:00:00 (CET)
Datum & Tijd tt [°C] td [°C] ff [km/u] ff [kn] fx [km/u] fx [kn] dd ppp [hPa] vv [km]
10.12.2019 16:00:00 4,5 0,8 25 14 - - Z 1020,8 20
10.12.2019 15:00:00 5,1 0,2 29 16 47 25 ZZW 1022,0 20
10.12.2019 14:00:00 5,0 0,3 29 16 43 23 ZZW 1023,2 20
10.12.2019 13:00:00 4,9 0,6 25 14 - - ZZW 1024,5 20
10.12.2019 12:00:00 4,1 0,6 25 14 36 19 ZZW 1025,7 20
10.12.2019 11:00:00 3,5 0,8 14 8 25 14 ZZW 1026,7 20
10.12.2019 10:00:00 2,4 0,2 11 6 - - Z 1026,7 20
10.12.2019 09:00:00 1,2 -0,1 14 8 18 10 ZZW 1027,0 15
10.12.2019 08:00:00 1,0 0,1 14 8 18 10 ZW 1027,0 15
10.12.2019 07:00:00 1,2 0,5 14 8 - - ZZW 1026,7 15
10.12.2019 06:00:00 2,0 1,2 11 6 14 8 ZW 1026,5 17
10.12.2019 05:00:00 2,5 1,6 11 6 14 8 ZW 1026,0 19
10.12.2019 04:00:00 2,5 1,5 7 4 - - WZW 1026,2 20
10.12.2019 03:00:00 3,2 2,1 11 6 14 8 WZW 1025,5 20
10.12.2019 02:00:00 3,0 1,8 11 6 18 10 WZW 1024,7 20
10.12.2019 01:00:00 3,3 1,6 7 4 - - W 1024,2 20
10.12.2019 00:00:00 3,7 2,0 11 6 14 8 W 1023,6 19
09.12.2019 23:00:00 4,4 2,4 11 6 22 12 W 1022,2 19
09.12.2019 22:00:00 3,9 2,1 11 6 - - W 1021,1 16
09.12.2019 21:00:00 4,0 2,3 7 4 32 18 WNW 1019,7 15
09.12.2019 20:00:00 4,4 2,4 11 6 36 19 WNW 1017,8 15
09.12.2019 19:00:00 5,9 1,6 14 8 - - NW 1015,7 15
09.12.2019 18:00:00 5,8 3,2 22 12 36 19 NW 1013,5 15
09.12.2019 17:00:00 6,3 3,7 25 14 58 31 NW 1010,6 20
09.12.2019 16:00:00 6,6 4,9 32 18 - - NNW 1007,1 12
09.12.2019 15:00:00 6,1 5,0 36 19 50 27 W 1004,2 3,0
09.12.2019 14:00:00 6,5 5,0 25 14 47 25 W 1003,6 8
09.12.2019 13:00:00 6,9 5,0 18 10 - - WNW 1002,7 4,0
09.12.2019 12:00:00 7,1 5,5 22 12 32 18 W 1001,5 15
09.12.2019 11:00:00 6,6 4,9 18 10 32 18 WZW 1000,5 8
09.12.2019 10:00:00 6,1 4,1 22 12 - - ZW 998,9 15
09.12.2019 09:00:00 6,4 4,0 25 14 47 25 ZW 997,7 15
09.12.2019 08:00:00 6,1 4,5 32 18 65 35 ZW 996,6 10
09.12.2019 07:00:00 6,3 4,3 46 25 - - ZW 995,4 10
09.12.2019 06:00:00 6,1 4,3 40 21 61 33 ZZW 994,8 19
09.12.2019 05:00:00 6,1 3,8 36 19 58 31 ZZW 995,6 12
09.12.2019 04:00:00 6,6 2,9 36 19 - - ZZW 996,6 20
09.12.2019 03:00:00 6,8 2,9 36 19 61 33 ZZW 997,9 20
09.12.2019 02:00:00 6,9 3,3 36 19 54 29 ZW 998,8 20
09.12.2019 01:00:00 7,2 3,3 40 21 - - ZW 999,4 20
09.12.2019 00:00:00 6,9 3,7 36 19 47 25 ZW 1000,3 20
08.12.2019 23:00:00 6,4 3,0 29 16 50 27 ZW 1000,7 20
08.12.2019 22:00:00 7,0 3,1 32 18 - - ZW 1001,2 20
08.12.2019 21:00:00 7,7 3,2 40 21 58 31 WZW 1001,3 20
08.12.2019 20:00:00 8,3 5,0 29 16 47 25 WZW 1001,3 20
08.12.2019 19:00:00 8,5 4,9 29 16 - - WZW 1001,7 19
08.12.2019 18:00:00 8,9 5,1 29 16 50 27 ZW 1001,8 17
08.12.2019 17:00:00 9,1 4,7 25 14 47 25 ZW 1002,6 16
08.12.2019 16:00:00 9,5 4,9 29 16 - - WZW 1003,0 18
08.12.2019 15:00:00 10,1 5,5 29 16 50 27 WZW 1003,1 18
08.12.2019 14:00:00 10,4 6,9 25 14 47 25 WZW 1003,5 18
08.12.2019 13:00:00 10,6 8,0 32 18 - - WZW 1003,5 20
08.12.2019 12:00:00 10,1 9,2 32 18 50 27 ZW 1003,7 11
08.12.2019 11:00:00 9,5 8,8 36 19 50 27 ZW 1003,7 2,6
08.12.2019 10:00:00 9,1 8,3 35 19 - - ZZW 1004,1 4,7
08.12.2019 09:00:00 8,8 7,7 36 19 58 31 ZZW 1004,5 4,8
08.12.2019 08:00:00 8,7 7,2 32 18 54 29 ZZW 1005,0 7
08.12.2019 07:00:00 9,8 7,0 40 21 - - ZZW 1006,2 20
08.12.2019 06:00:00 9,8 6,4 36 19 58 31 ZZW 1006,2 20
08.12.2019 05:00:00 9,5 6,0 39 21 54 29 ZZW 1007,5 10
08.12.2019 04:00:00 9,0 5,8 32 18 - - ZZW 1009,0 20
08.12.2019 03:00:00 8,8 5,6 29 16 50 27 ZZW 1010,5 20
08.12.2019 02:00:00 8,6 5,4 32 18 43 23 ZZW 1011,1 20
08.12.2019 01:00:00 8,6 5,0 22 12 - - ZZW 1012,6 20
08.12.2019 00:00:00 8,6 5,0 25 14 32 18 ZZW 1013,7 20
07.12.2019 23:00:00 8,7 4,9 22 12 32 18 ZZW 1014,3 20
07.12.2019 22:00:00 8,5 5,2 18 10 - - ZW 1015,2 20
07.12.2019 21:00:00 8,5 5,6 18 10 25 14 ZZW 1015,7 20
07.12.2019 20:00:00 8,3 6,2 18 10 25 14 ZZW 1016,2 20
07.12.2019 19:00:00 8,2 6,2 18 10 - - ZW 1016,2 20
07.12.2019 18:00:00 8,3 5,9 14 8 25 14 ZW 1016,2 20
07.12.2019 17:00:00 8,6 6,0 14 8 25 14 ZW 1016,2 19
07.12.2019 16:00:00 8,8 5,2 18 10 - - WZW 1015,8 20
07.12.2019 15:00:00 9,0 4,8 18 10 29 16 WZW 1015,6 20
07.12.2019 14:00:00 9,1 5,6 22 12 36 19 WZW 1015,7 20
07.12.2019 13:00:00 9,1 6,3 22 12 - - WZW 1015,5 20
07.12.2019 12:00:00 8,6 5,4 22 12 29 16 WZW 1015,6 20
07.12.2019 11:00:00 8,6 5,2 18 10 29 16 WZW 1015,6 20
07.12.2019 10:00:00 8,4 5,2 22 12 - - WZW 1014,8 20
07.12.2019 09:00:00 8,0 5,8 14 8 25 14 ZW 1014,6 20
07.12.2019 08:00:00 8,0 6,1 18 10 29 16 WZW 1013,7 20
07.12.2019 07:00:00 8,1 6,2 18 10 - - WZW 1013,3 20
07.12.2019 06:00:00 8,3 6,4 18 10 29 16 WZW 1012,5 20
07.12.2019 05:00:00 8,7 6,7 18 10 29 16 WZW 1012,1 20
07.12.2019 04:00:00 8,8 6,7 18 10 - - WZW 1011,2 20
07.12.2019 03:00:00 8,9 7,0 22 12 36 19 WZW 1010,5 20
07.12.2019 02:00:00 9,1 7,2 22 12 36 19 WZW 1009,3 20
07.12.2019 01:00:00 9,1 7,5 26 14 - - WZW 1009,0 10
07.12.2019 00:00:00 8,8 7,6 25 14 40 21 WZW 1008,2 19
06.12.2019 23:00:00 8,3 7,4 28 15 54 29 ZW 1007,2 10
06.12.2019 22:00:00 7,9 7,1 34 18 - - ZW 1006,8 3,2
06.12.2019 21:00:00 7,0 6,2 29 16 50 27 ZW 1007,1 10
06.12.2019 20:00:00 6,1 5,4 32 18 50 27 ZZW 1007,2 14
06.12.2019 19:00:00 5,6 4,8 36 19 - - ZZW 1007,5 11
06.12.2019 18:00:00 5,5 4,7 32 18 50 27 ZZW 1007,8 7
06.12.2019 17:00:00 5,4 4,7 32 18 50 27 ZZW 1008,3 4,0
06.12.2019 16:00:00 5,4 4,7 36 19 - - ZZW 1008,6 3,0
06.12.2019 15:00:00 5,4 4,5 37 20 50 27 ZZW 1009,3 10
06.12.2019 14:00:00 4,9 4,3 32 18 50 27 ZZW 1010,3 5
06.12.2019 13:00:00 5,0 4,0 36 19 - - ZZW 1011,5 6
06.12.2019 12:00:00 4,6 3,8 29 16 47 25 ZZW 1012,2 6
06.12.2019 11:00:00 3,8 3,1 29 16 43 23 ZZW 1013,3 4,5
06.12.2019 10:00:00 3,2 2,5 29 16 - - ZZW 1013,7 4,5
06.12.2019 09:00:00 2,7 1,6 29 16 43 23 ZZW 1014,2 4,5
06.12.2019 08:00:00 2,4 0,3 29 16 47 25 ZZW 1014,6 10
06.12.2019 07:00:00 2,0 0,0 31 17 - - ZZW 1014,6 10
06.12.2019 06:00:00 1,3 -0,1 25 14 47 25 ZZW 1015,2 12
06.12.2019 05:00:00 1,2 0,0 32 18 47 25 ZZW 1015,7 10
06.12.2019 04:00:00 1,1 -0,1 29 16 - - ZZW 1016,2 9
06.12.2019 03:00:00 1,2 0,0 29 16 43 23 ZZW 1016,8 9
06.12.2019 02:00:00 1,2 0,4 29 16 43 23 ZZW 1017,3 7
06.12.2019 01:00:00 1,1 0,4 25 14 - - ZZW 1018,1 5
06.12.2019 00:00:00 0,8 -0,1 25 14 40 21 ZZW 1019,5 6
05.12.2019 23:00:00 1,2 -0,2 25 14 36 19 ZZW 1019,5 10
05.12.2019 22:00:00 1,2 -0,1 18 10 - - ZZW 1020,0 8
05.12.2019 21:00:00 1,3 0,1 22 12 32 18 ZZW 1019,7 8
05.12.2019 20:00:00 1,2 0,0 14 8 25 14 ZW 1020,7 6
05.12.2019 19:00:00 0,5 -0,1 18 10 - - ZW 1021,2 5
05.12.2019 18:00:00 1,1 0,7 18 10 29 16 ZZW 1021,5 2,6
05.12.2019 17:00:00 1,3 0,9 18 10 29 16 ZZW 1021,8 3,5
05.12.2019 16:00:00 1,7 0,9 22 12 - - ZW 1021,8 5
05.12.2019 15:00:00 2,4 1,0 14 8 25 14 WZW 1022,2 6
05.12.2019 14:00:00 2,6 1,5 11 6 22 12 ZW 1022,2 4,5
05.12.2019 13:00:00 2,4 1,3 11 6 - - ZW 1022,5 4,0
05.12.2019 12:00:00 1,1 0,5 11 6 18 10 ZZW 1022,6 3,0
05.12.2019 11:00:00 0,1 -0,4 11 6 14 8 ZW 1023,2 3,0
05.12.2019 10:00:00 -0,7 -1,3 11 6 - - ZW 1023,5 4,0
05.12.2019 09:00:00 -0,7 -1,4 13 7 18 10 Z 1023,5 4,0
05.12.2019 08:00:00 -0,8 -1,6 11 6 14 8 ZW 1022,6 4,0
05.12.2019 07:00:00 -1,1 -1,8 11 6 - - ZW 1022,2 6
05.12.2019 06:00:00 -0,6 -1,2 7 4 14 8 Z 1021,7 5
05.12.2019 05:00:00 -0,8 -1,0 7 4 14 8 W 1022,2 2,7
05.12.2019 04:00:00 -0,3 -0,6 14 8 - - ZW 1021,5 3,5
05.12.2019 03:00:00 -0,3 -0,7 11 6 11 6 ZZW 1021,3 5
05.12.2019 02:00:00 0,0 -0,3 9 5 11 6 ZZW 1021,6 5
05.12.2019 01:00:00 0,3 0,1 7 4 - - WZW 1021,3 3,1
05.12.2019 00:00:00 0,4 0,3 4 2 7 4 N 1021,3 4,8
04.12.2019 23:00:00 -1,3 -1,3 4 2 7 4 N 1021,5 0,1
04.12.2019 22:00:00 1,6 1,4 2 1 - - - 1020,8 0,9
04.12.2019 21:00:00 1,3 1,1 4 2 4 2 N 1021,2 2,2
04.12.2019 20:00:00 1,3 0,7 4 2 4 2 N 1021,1 3,9
04.12.2019 19:00:00 2,3 1,4 5 3 - - NO 1020,7 7
04.12.2019 18:00:00 3,8 1,8 4 2 4 2 N 1020,7 13
04.12.2019 17:00:00 4,5 1,9 4 2 7 4 N 1020,8 15
04.12.2019 16:00:00 4,3 2,1 4 2 - - N 1020,8 20

tt = temperatuur
td = dauwpunt
ff = windsnelheid
fx = windstoten
dd = windrichting
ppp = luchtdruk
vv = zicht

Weerstations in de omgeving